STARLINK-1081 (44962 NORAD) Tracking and Keplerian Element Data

This shows tracking and keplerian element data for the satellite.

Feedback or suggestion? Click here.




ElementValue
Catalog44962
NameSTARLINK-1081
Epoch Orbit2794
Epoch Day187.50002315
Epoch Year2020
RAAN253.526
Inclination52.9983
Eccentricity9.71E-05
Argument of Perigee113.5791
Mean Anonmoly47.6069
Mean Motion15.0558825
Decay Rate-5.838E-05
L11 44962U 20001BA 20187.50002315 -.00005838 00000-0 -38173-3 0 9993
L22 44962 52.9983 253.5260 0000971 113.5791 47.6069 15.05588250 27943

Live tracking and technical data element details for STARLINK-1081 (NORAD 44962). STARLINK-1081 can be tracked NOW for your location showing map with azimuth and elevation plus other details from your city location.

Track the satellite on the map from your city or location and see movement details for azimuth, elevation, latitude, longitude, range, height, and movement on the map or in text.







IsCatalogInMostPopularTable: catalog: 44962, numindb: 41
Update: records affected: 1



GetName: 44962 STARLINK-1081

Hit Count: updated at: Mon, 06 Jul 2020 06:32:18 GMT